Retour au catalogue

TELKOM 1

ActifCommunicationsGEO
NORAD 25880·PAYLOAD·🇮🇩 Indonesia

Lancé Aug 12, 1999 depuis Guiana Space Centre

Loading…

TLE

FraisSource: Space-Track

Époque: Sep 14, 2026, 14:06 UTC

1 25880U 99042A   26257.58792773  .00000002  00000-0  00000-0 0  9999
2 25880   7.8949  65.2137 0014370 259.8296 305.0149  1.00253003 99286

Suivez TELKOM 1 en temps réel avec AllMySat

Download on the App Store